FW1245 Weather Reports


Display with metric or nautical units.
time (UTC)temp
F
wind
direction
speed
MPH
gust
MPH
rain 1hr
in
rain 24hr
in
rain mn
in
humidity
%
barometer
mb
20260510160516 53 0.0 1.0 0.00 0.16 0.00 87 1013.3
20260510160016 53 203 1.0 4.0 0.00 0.17 0.00 87 1013.3
20260510155516 53 293 1.0 3.0 0.00 0.17 0.00 87 1013.2
20260510155036 53 293 1.0 4.0 0.00 0.18 0.00 86 1013.3
20260510154516 53 293 2.0 12.0 0.00 0.18 0.00 85 1013.3
20260510154016 53 270 3.0 11.0 0.00 0.19 0.00 85 1013.1
20260510153516 53 23 1.0 4.0 0.00 0.20 0.00 85 1013.2
20260510153016 54 293 2.0 6.0 0.00 0.21 0.00 86 1013.1
20260510152516 54 293 1.0 5.0 0.00 0.21 0.00 85 1013.1
20260510152016 53 315 2.0 10.0 0.00 0.22 0.00 86 1013.0
20260510151516 53 248 1.0 4.0 0.00 0.22 0.00 87 1013.1
20260510151036 53 270 1.0 4.0 0.00 0.23 0.00 88 1012.9
20260510150516 53 248 2.0 7.0 0.00 0.23 0.00 86 1012.7
20260510150016 54 23 1.0 7.0 0.00 0.24 0.00 86 1012.7
20260510145536 54 135 1.0 2.0 0.00 0.24 0.00 86 1012.8
20260510145016 54 293 1.0 4.0 0.00 0.25 0.00 87 1012.6
20260510144516 54 68 2.0 7.0 0.00 0.25 0.00 86 1012.7
20260510144016 54 315 2.0 9.0 0.00 0.26 0.00 86 1012.9
20260510143516 55 293 2.0 5.0 0.00 0.26 0.00 85 1012.8
20260510143016 55 293 1.0 4.0 0.00 0.26 0.00 84 1012.8
20260510142516 55 270 1.0 4.0 0.00 0.27 0.00 84 1012.6
20260510142036 55 225 2.0 11.0 0.00 0.27 0.00 82 1012.4
20260510141516 56 338 2.0 7.0 0.00 0.27 0.00 81 1012.3
20260510141016 56 293 2.0 11.0 0.00 0.27 0.00 81 1012.0
20260510140516 56 293 2.0 10.0 0.00 0.27 0.00 79 1012.0
20260510140016 57 293 2.0 8.0 0.00 0.27 0.00 77 1012.0
20260510135516 57 293 3.0 8.0 0.00 0.27 0.00 76 1012.0
20260510135016 58 315 1.0 6.0 0.00 0.27 0.00 77 1011.9
20260510134516 59 270 1.0 5.0 0.00 0.27 0.00 76 1012.0
20260510134016 59 315 2.0 7.0 0.00 0.27 0.00 77 1011.9
20260510133516 59 0 1.0 4.0 0.00 0.27 0.00 77 1011.8
20260510133016 59 0 1.0 5.0 0.00 0.27 0.00 78 1011.9
20260510132536 60 0 2.0 6.0 0.00 0.27 0.00 75 1012.0
20260510132016 60 293 1.0 4.0 0.00 0.27 0.00 77 1011.9
20260510131516 60 293 2.0 6.0 0.00 0.27 0.00 76 1012.1
20260510131016 60 338 1.0 5.0 0.00 0.27 0.00 75 1012.0
20260510130516 60 270 2.0 10.0 0.00 0.27 0.00 77 1012.1
20260510130016 60 248 3.0 11.0 0.00 0.27 0.00 76 1012.0
20260510125516 59 315 3.0 10.0 0.00 0.27 0.00 77 1012.0
20260510125016 59 135 3.0 11.0 0.00 0.27 0.00 81 1011.9
20260510124516 58 135 2.0 10.0 0.00 0.27 0.00 76 1011.8
20260510124016 58 0.0 3.0 0.00 0.27 0.00 81 1011.7
20260510123516 57 315 1.0 4.0 0.00 0.27 0.00 79 1011.3
20260510123016 57 338 2.0 12.0 0.00 0.27 0.00 77 1011.3
20260510122516 57 293 3.0 9.0 0.00 0.27 0.00 77 1011.4
20260510122016 58 158 2.0 6.0 0.00 0.27 0.00 79 1011.6
20260510121516 57 45 2.0 6.0 0.00 0.27 0.00 84 1011.5
20260510121036 57 23 2.0 5.0 0.00 0.27 0.00 87 1011.5
20260510120516 56 0 2.0 4.0 0.00 0.27 0.00 86 1011.5
20260510120036 55 23 2.0 3.0 0.00 0.27 0.00 89 1011.6
20260510115516 54 23 2.0 3.0 0.00 0.27 0.00 89 1011.5
20260510115016 54 23 2.0 4.0 0.00 0.27 0.00 90 1011.4
20260510114516 53 23 2.0 3.0 0.00 0.27 0.00 91 1011.4
20260510114016 53 23 2.0 4.0 0.00 0.27 0.00 92 1011.3
20260510113517 52 23 2.0 4.0 0.00 0.27 0.00 93 1011.2
20260510113016 51 23 2.0 5.0 0.00 0.27 0.00 95 1011.0
20260510112515 51 0.0 3.0 0.00 0.27 0.00 97 1011.2
20260510112016 50 0.0 1.0 0.00 0.27 0.00 97 1011.1
20260510111516 50 0.0 0.0 0.00 0.27 0.00 97 1011.0
20260510111015 49 0.0 0.0 0.00 0.27 0.00 98 1010.9
20260510110516 49 0.0 0.0 0.00 0.27 0.00 99 1011.0
20260510110015 49 0.0 0.0 0.00 0.27 0.00 99 1010.9
20260510105516 48 0.0 1.0 0.00 0.27 0.00 99 1010.7
20260510105016 47 338 1.0 4.0 0.00 0.27 0.00 99 1010.7
20260510104515 47 0.0 0.0 0.00 0.27 0.00 98 1010.7
20260510104016 47 225 1.0 2.0 0.00 0.27 0.00 97 1010.6
20260510103515 47 0.0 1.0 0.00 0.27 0.00 98 1010.6
20260510103016 47 0.0 0.0 0.00 0.27 0.00 98 1010.7
20260510102536 46 0.0 0.0 0.00 0.27 0.00 98 1010.6
20260510102015 46 0.0 0.0 0.00 0.27 0.00 98 1010.6
20260510101516 46 0.0 2.0 0.00 0.27 0.00 97 1010.4
20260510101015 46 0.0 2.0 0.00 0.27 0.00 97 1010.4
20260510100516 46 225 1.0 3.0 0.00 0.27 0.00 98 1010.2
20260510100016 46 0.0 2.0 0.00 0.27 0.00 97 1010.2
20260510095515 46 0.0 1.0 0.00 0.27 0.00 97 1009.9
20260510095015 46 0.0 2.0 0.00 0.27 0.00 97 1009.8
20260510094556 46 0.0 0.0 0.00 0.27 0.00 97 1009.7
20260510094016 46 0.0 0.0 0.00 0.27 0.00 96 1009.5
20260510093515 46 0.0 1.0 0.00 0.27 0.00 96 1009.5
20260510093015 46 0.0 0.0 0.00 0.27 0.00 96 1009.5
20260510092536 47 0.0 1.0 0.00 0.27 0.00 96 1009.3
20260510092015 47 0.0 2.0 0.00 0.27 0.00 96 1009.3
20260510091515 47 0.0 2.0 0.00 0.27 0.00 96 1009.1
20260510091015 47 0.0 2.0 0.00 0.27 0.00 96 1009.3
20260510090515 47 0.0 2.0 0.00 0.27 0.00 96 1009.5
20260510090016 48 0.0 1.0 0.00 0.27 0.00 96 1009.5
20260510085516 48 225 1.0 3.0 0.00 0.27 0.00 96 1009.4
20260510085036 48 0.0 2.0 0.00 0.27 0.00 95 1009.6
20260510084515 49 0.0 2.0 0.00 0.27 0.00 95 1009.4
20260510084015 49 225 1.0 4.0 0.00 0.27 0.00 94 1009.5
20260510083515 49 0.0 1.0 0.00 0.27 0.00 94 1009.5
20260510083018 50 225 1.0 2.0 0.00 0.27 0.00 94 1009.2
20260510082517 50 225 1.0 3.0 0.00 0.27 0.00 93 1009.5
20260510082017 50 270 2.0 6.0 0.00 0.27 0.00 93 1009.6
20260510081537 50 135 4.0 10.0 0.00 0.27 0.00 94 1009.7
20260510081017 50 293 1.0 3.0 0.00 0.27 0.00 94 1010.0
20260510080517 50 0.0 1.0 0.00 0.27 0.00 95 1010.1
20260510080017 50 293 1.0 4.0 0.00 0.27 0.00 94 1010.4
20260510075517 50 0.0 2.0 0.00 0.27 0.00 95 1010.4
20260510075017 50 225 1.0 3.0 0.00 0.27 0.00 95 1010.5
20260510074516 50 23 1.0 3.0 0.00 0.27 0.00 95 1010.6
20260510074017 50 270 1.0 7.0 0.00 0.27 0.00 95 1010.8
20260510073517 50 113 1.0 3.0 0.00 0.27 0.00 95 1011.0
20260510073017 50 135 1.0 7.0 0.00 0.27 0.00 95 1010.7
20260510072517 50 270 1.0 2.0 0.00 0.27 0.00 95 1010.8
20260510072017 50 270 1.0 9.0 0.00 0.27 0.00 94 1010.7
20260510071517 50 293 1.0 4.0 0.00 0.27 0.00 94 1010.4
20260510071017 50 248 1.0 4.0 0.00 0.27 0.00 94 1010.3
20260510070517 50 0.0 0.0 0.00 0.27 0.00 93 1010.5
20260510070017 50 0.0 1.0 0.00 0.27 0.00 92 1010.4
20260510065517 50 0.0 3.0 0.00 0.27 0.00 92 1010.4
20260510065017 50 225 1.0 3.0 0.00 0.27 0.00 92 1010.2
20260510064517 50 225 1.0 3.0 0.00 0.27 0.00 93 1010.2
20260510064017 50 293 1.0 5.0 0.00 0.27 0.00 92 1010.0
20260510063537 49 270 1.0 4.0 0.00 0.27 0.00 93 1010.0
20260510063017 49 68 2.0 6.0 0.00 0.27 0.00 95 1010.0
20260510062517 48 158 2.0 10.0 0.00 0.27 0.00 96 1010.2
20260510062037 47 293 1.0 6.0 0.00 0.27 0.00 97 1010.2
20260510061517 47 270 1.0 4.0 0.00 0.27 0.00 97 1010.2
20260510061017 47 180 1.0 4.0 0.00 0.27 0.00 96 1010.1
20260510060517 47 0.0 2.0 0.00 0.27 0.00 96 1010.0
20260510060057 47 0.0 2.0 0.00 0.27 0.00 96 1010.0
20260510055517 47 0.0 2.0 0.00 0.27 0.00 96 1010.0
20260510055017 47 0.0 2.0 0.00 0.27 0.00 96 1010.0
20260510054517 47 0.0 2.0 0.00 0.27 0.00 96 1010.2
20260510054017 47 180 1.0 2.0 0.00 0.27 0.00 96 1010.3
20260510053517 47 0.0 2.0 0.00 0.27 0.00 96 1010.3
20260510053017 47 180 1.0 2.0 0.00 0.27 0.00 96 1010.2
20260510052518 47 180 1.0 2.0 0.00 0.27 0.00 96 1010.2
20260510052017 47 0.0 2.0 0.00 0.27 0.00 95 1010.4
20260510051517 48 0.0 1.0 0.00 0.27 0.00 95 1010.2
20260510051017 48 0.0 3.0 0.00 0.27 0.00 95 1010.4
20260510050517 48 0.0 1.0 0.00 0.27 0.00 94 1010.5
20260510050017 48 0.0 1.0 0.00 0.27 0.00 94 1010.4
20260510045517 48 180 1.0 3.0 0.00 0.27 0.00 93 1010.5
20260510045017 49 0.0 2.0 0.00 0.27 0.00 92 1010.4
20260510044517 49 180 1.0 2.0 0.00 0.27 0.00 91 1010.3
20260510044017 50 158 1.0 6.0 0.00 0.27 0.00 90 1010.4
20260510043517 50 158 1.0 7.0 0.00 0.27 0.00 89 1010.3
20260510043057 51 113 2.0 9.0 0.00 0.27 0.00 89 1010.5
20260510042517 51 135 3.0 10.0 0.00 0.27 0.00 89 1010.6
20260510042017 51 135 4.0 11.0 0.00 0.27 0.00 88 1010.7
20260510041537 51 135 3.0 8.0 0.00 0.27 0.00 88 1010.8
20260510041017 51 135 6.0 12.0 0.00 0.27 0.00 88 1010.8
20260510040517 51 135 4.0 10.0 0.00 0.27 0.00 88 1010.6
20260510035517 51 135 4.0 7.0 0.00 0.27 0.27 89 1010.4
20260510035058 50 158 4.0 11.0 0.00 0.27 0.27 89 1010.4
20260510034517 50 135 5.0 14.0 0.00 0.27 0.27 89 1010.4
20260510034037 50 135 5.0 11.0 0.00 0.27 0.27 89 1010.4
20260510033517 50 135 4.0 12.0 0.00 0.27 0.27 90 1010.4
20260510033037 50 135 5.0 14.0 0.00 0.27 0.27 91 1010.5
20260510032517 49 270 1.0 4.0 0.00 0.27 0.27 91 1010.7
20260510032017 49 135 5.0 13.0 0.00 0.27 0.27 91 1010.6
20260510031517 49 135 4.0 9.0 0.00 0.27 0.27 92 1010.5
20260510031017 49 135 4.0 10.0 0.00 0.27 0.27 93 1010.6
20260510030537 48 113 3.0 10.0 0.00 0.27 0.27 95 1010.5
20260510030017 48 203 1.0 7.0 0.00 0.27 0.27 95 1010.7
20260510025537 48 203 1.0 5.0 0.00 0.27 0.27 95 1010.6
20260510025017 48 338 3.0 7.0 0.00 0.27 0.27 95 1010.6
20260510024517 48 338 1.0 3.0 0.00 0.27 0.27 96 1010.6
20260510024017 48 225 2.0 4.0 0.00 0.27 0.27 97 1010.7
20260510023517 48 225 3.0 9.0 0.00 0.27 0.27 98 1010.5
20260510023017 47 293 2.0 6.0 0.00 0.27 0.27 98 1010.7
20260510022517 47 315 1.0 5.0 0.00 0.27 0.27 98 1010.8
20260510022057 47 338 1.0 6.0 0.00 0.27 0.27 98 1010.7
20260510021537 47 0.0 2.0 0.00 0.27 0.27 98 1010.5
20260510021017 47 0.0 2.0 0.00 0.27 0.27 98 1010.3
20260510020638 47 0.0 3.0 0.00 0.27 0.27 98 1010.4
20260510020017 47 0.0 2.0 0.00 0.27 0.27 98 1010.4
20260510015517 46 0.0 0.0 0.00 0.27 0.27 98 1010.7
20260510015017 46 0.0 0.0 0.00 0.27 0.27 98 1010.8
20260510014517 46 0.0 0.0 0.00 0.27 0.27 98 1010.8
20260510014017 46 0.0 0.0 0.00 0.27 0.27 98 1011.0
20260510013517 46 0.0 0.0 0.00 0.27 0.27 97 1011.0
20260510013017 47 0.0 0.0 0.00 0.27 0.27 97 1011.0
20260510012517 47 0.0 0.0 0.00 0.27 0.27 97 1010.9
20260510012017 47 0.0 0.0 0.00 0.27 0.27 97 1010.8
20260510011517 47 0.0 0.0 0.00 0.27 0.27 97 1011.0
20260510011017 47 0.0 0.0 0.00 0.27 0.27 97 1011.0
20260510010537 47 0.0 0.0 0.00 0.27 0.27 97 1011.0
20260510010017 47 0.0 0.0 0.00 0.27 0.27 97 1010.9
20260510005517 47 0.0 1.0 0.00 0.27 0.27 97 1010.9
20260510005017 47 0.0 0.0 0.00 0.27 0.27 97 1010.9
20260510004517 47 0.0 2.0 0.00 0.27 0.27 97 1010.8
20260510004017 47 0.0 1.0 0.00 0.27 0.27 97 1010.7
20260510003537 47 0.0 1.0 0.00 0.27 0.27 97 1010.6
20260510003017 47 0.0 1.0 0.00 0.27 0.27 97 1010.6
20260510002517 47 0.0 1.0 0.00 0.27 0.27 97 1010.5
20260510002037 47 0.0 1.0 0.00 0.27 0.27 97 1010.5
20260510001517 47 0.0 1.0 0.00 0.27 0.27 96 1010.6
20260510001017 47 0.0 2.0 0.00 0.27 0.27 96 1010.6
20260510000517 47 0.0 1.0 0.00 0.27 0.27 96 1010.4
20260510000017 47 0.0 2.0 0.00 0.27 0.27 96 1010.4
20260509235517 47 0.0 1.0 0.00 0.27 0.27 96 1010.2
20260509235016 48 0.0 1.0 0.00 0.27 0.27 96 1010.1
20260509234517 48 0.0 4.0 0.00 0.27 0.27 96 1010.1
20260509234017 48 338 1.0 4.0 0.00 0.27 0.27 95 1010.1
20260509233558 48 0.0 3.0 0.00 0.27 0.27 95 1009.8
20260509233017 48 338 1.0 2.0 0.00 0.27 0.27 95 1009.8
20260509232517 48 338 1.0 3.0 0.00 0.27 0.27 95 1009.8
20260509232037 48 338 1.0 4.0 0.00 0.27 0.27 94 1009.7
20260509231537 49 293 1.0 4.0 0.00 0.27 0.27 94 1009.7
20260509231017 49 0.0 2.0 0.00 0.27 0.27 94 1009.5
20260509230517 49 0.0 2.0 0.00 0.27 0.27 94 1009.5
20260509230017 49 293 1.0 7.0 0.00 0.27 0.27 93 1009.5
20260509225517 49 293 1.0 3.0 0.00 0.27 0.27 93 1009.5
20260509225017 50 293 1.0 5.0 0.00 0.27 0.27 93 1009.5
20260509224517 50 248 1.0 4.0 0.00 0.27 0.27 93 1009.5
20260509224017 50 135 3.0 6.0 0.00 0.27 0.27 92 1009.6
20260509223516 50 135 3.0 8.0 0.00 0.27 0.27 91 1009.4
20260509223037 50 113 2.0 9.0 0.00 0.27 0.27 92 1009.6
20260509222517 50 113 3.0 8.0 0.00 0.27 0.27 92 1009.6
20260509222017 50 135 2.0 4.0 0.00 0.27 0.27 92 1009.7
20260509221516 50 135 1.0 3.0 0.00 0.27 0.27 92 1009.6
20260509221016 50 113 3.0 9.0 0.00 0.27 0.27 92 1009.7
20260509220516 50 113 1.0 3.0 0.00 0.27 0.27 93 1009.7
20260509220016 50 135 3.0 9.0 0.00 0.27 0.27 92 1009.8
20260509215516 50 113 2.0 8.0 0.00 0.27 0.27 92 1009.7
20260509215017 50 158 2.0 4.0 0.00 0.27 0.27 92 1009.7
20260509214537 50 135 2.0 7.0 0.01 0.27 0.27 92 1009.7
20260509214017 50 180 3.0 10.0 0.01 0.27 0.27 92 1009.7
20260509213556 50 180 1.0 5.0 0.01 0.27 0.27 93 1009.8
20260509213017 50 180 1.0 2.0 0.01 0.27 0.27 93 1009.7
20260509212516 50 113 2.0 5.0 0.01 0.27 0.27 92 1009.8
20260509212016 50 135 3.0 7.0 0.01 0.27 0.27 93 1009.9
20260509211517 50 248 1.0 8.0 0.01 0.27 0.27 94 1009.9
20260509211017 49 248 1.0 4.0 0.01 0.27 0.27 93 1010.0
20260509210516 49 113 4.0 12.0 0.01 0.27 0.27 93 1009.9
20260509210017 49 135 1.0 6.0 0.01 0.27 0.27 95 1010.0
20260509205537 49 135 1.0 3.0 0.01 0.27 0.27 94 1010.1
20260509205016 49 135 1.0 5.0 0.01 0.27 0.27 93 1010.0
20260509204516 49 135 3.0 9.0 0.00 0.26 0.26 92 1010.2
20260509204016 50 113 2.0 10.0 0.00 0.26 0.26 92 1010.0
20260509203537 50 113 1.0 4.0 0.00 0.26 0.26 93 1010.3
20260509203016 49 135 4.0 12.0 0.00 0.26 0.26 91 1010.3
20260509202516 49 158 1.0 5.0 0.00 0.26 0.26 93 1010.3
20260509202016 49 135 3.0 8.0 0.00 0.26 0.26 92 1010.3
20260509201516 49 113 1.0 5.0 0.00 0.26 0.26 93 1010.2
20260509201016 50 135 1.0 4.0 0.00 0.26 0.26 95 1010.3
20260509200516 50 45 1.0 5.0 0.00 0.26 0.26 94 1010.3
20260509200016 50 270 1.0 4.0 0.00 0.26 0.26 94 1010.3
20260509195516 50 270 1.0 4.0 0.01 0.26 0.26 94 1010.3
20260509195016 50 0.0 1.0 0.01 0.26 0.26 95 1010.4
20260509194516 50 135 1.0 5.0 0.02 0.26 0.26 93 1010.4
20260509194016 50 135 1.0 5.0 0.02 0.26 0.26 93 1010.4
20260509193516 50 68 1.0 8.0 0.03 0.26 0.26 93 1010.4
20260509193016 49 180 2.0 5.0 0.03 0.26 0.26 92 1010.4
20260509192516 50 158 2.0 7.0 0.04 0.26 0.26 93 1010.5
20260509192017 50 158 2.0 4.0 0.04 0.26 0.26 93 1010.5
20260509191657 50 158 1.0 4.0 0.05 0.26 0.26 94 1010.5
20260509191016 50 158 1.0 5.0 0.06 0.26 0.26 94 1010.5
20260509190516 50 135 2.0 9.0 0.06 0.26 0.26 94 1010.4
20260509190017 49 135 1.0 8.0 0.07 0.26 0.26 94 1010.5
20260509185516 49 113 3.0 9.0 0.07 0.25 0.25 93 1010.6
20260509185016 49 135 3.0 9.0 0.07 0.25 0.25 93 1010.6
20260509184516 49 135 2.0 5.0 0.07 0.24 0.24 94 1010.7
20260509184016 49 158 1.0 4.0 0.07 0.24 0.24 94 1010.6
20260509183516 48 248 2.0 6.0 0.07 0.23 0.23 94 1010.6
20260509183016 48 135 2.0 8.0 0.07 0.23 0.23 93 1010.7
20260509182516 48 135 3.0 8.0 0.06 0.22 0.22 92 1010.7
20260509182016 48 135 3.0 8.0 0.06 0.22 0.22 92 1010.7
20260509181516 49 135 1.0 4.0 0.05 0.21 0.21 94 1010.8
20260509181016 49 135 3.0 8.0 0.04 0.20 0.20 93 1010.7
20260509180516 49 158 4.0 8.0 0.05 0.20 0.20 93 1010.7
20260509180016 48 135 3.0 8.0 0.04 0.19 0.19 93 1010.6
20260509175516 48 113 8.0 14.0 0.03 0.18 0.18 91 1010.6
20260509175016 48 135 5.0 9.0 0.04 0.18 0.18 92 1010.7
20260509174516 48 158 4.0 15.0 0.03 0.17 0.17 91 1010.7
20260509174016 49 135 6.0 15.0 0.03 0.17 0.17 91 1010.8
20260509173538 49 135 1.0 8.0 0.02 0.16 0.16 92 1010.8
20260509173016 48 135 2.0 8.0 0.02 0.16 0.16 92 1010.9
20260509172516 48 135 1.0 4.0 0.03 0.16 0.16 93 1011.0
20260509172016 48 135 2.0 5.0 0.04 0.16 0.16 93 1011.1
20260509171516 48 135 3.0 14.0 0.04 0.16 0.16 91 1011.1
20260509171016 48 135 3.0 14.0 0.05 0.16 0.16 90 1011.2
20260509170516 48 135 3.0 7.0 0.04 0.15 0.15 91 1011.3
20260509170016 48 135 3.0 7.0 0.05 0.15 0.15 91 1011.4
20260509165516 48 135 3.0 7.0 0.05 0.15 0.15 92 1011.5
20260509165016 48 135 3.0 9.0 0.05 0.14 0.14 92 1011.5
20260509164516 48 158 2.0 7.0 0.05 0.14 0.14 93 1011.6
20260509164016 48 90 2.0 7.0 0.06 0.14 0.14 93 1011.7
20260509163516 48 45 1.0 5.0 0.07 0.14 0.14 94 1011.7
20260509163016 47 338 1.0 4.0 0.08 0.14 0.14 94 1011.7
20260509162516 47 0.0 3.0 0.07 0.13 0.13 96 1011.9
20260509162016 47 315 1.0 3.0 0.07 0.12 0.12 96 1011.9
20260509161516 47 0.0 1.0 0.07 0.12 0.12 96 1012.2
20260509161016 47 315 1.0 4.0 0.07 0.11 0.11 95 1012.1